Location: Chippewa Lake
(41.0698°N, 81.9010°W)
Time: 21:55:55
(UTC+00:00)

Cosmos 923 Rocket - Pass Details

Date: 09 May 2021
Orbit: 758 x 786 km, 74.0° (Epoch: 16 June)

Event Time Altitude Azimuth Distance (km) Brightness Sun altitude
Rises 03:49:42 0° 343° (NNW) 3,242 8.5 -27.6°
Reaches altitude 10° 03:52:06 10° 347° (NNW) 2,316 7.4 -27.8°
Enters shadow 03:56:53 61° 42° (NE) 877 4.3 -28.1°
